Philip, SD

9:33 AM MDT on August 25, 2016 (GMT -0600)
Philip

Weather History for KPHP - May, 2012

Change the Weather History Date:

Wednesday, May 16, 2012

  Actual Average Record
Temperature  
Mean Temperature 68 °F 57 °F  
Max Temperature 93 °F 70 °F 94 °F (1979)
Min Temperature 43 °F 44 °F 32 °F (2011)
Degree Days  
Heating Degree Days 0 9  
Month to date heating degree days 113 175  
Since 1 July heating degree days 5734 7042  
Cooling Degree Days 3 1  
Month to date cooling degree days 5 11  
Year to date cooling degree days 19 14  
Growing Degree Days 18 (Base 50)    
Moisture  
Dew Point 38 °F    
Average Humidity 45    
Maximum Humidity 76    
Minimum Humidity 14    
Precipitation  
Precipitation T in 0.09 in 1.09 in (1961)
Month to date precipitation 0.66 1.58  
Year to date precipitation 3.30 5.47  
Sea Level Pressure  
Sea Level Pressure 29.82 in    
Wind  
Wind Speed 15 mph (SSE)    
Max Wind Speed 28 mph    
Max Gust Speed 36 mph    
Visibility 10 miles    
Events Rain    
T = Trace of Precipitation, MM = Missing Value Source: NWS Daily Summary

Daily Weather History Graph

Daily Weather History Graph

Search for Another Location

Airport or City:

Trip Planner

Search our weather history database for the weather conditions in past years. The results will help you decide how hot, cold, wet, or windy it might be!

Date:

Astronomy

May. 16, 2012 Rise Set
Actual Time 5:18 AM MDT 8:07 PM MDT
Civil Twilight 4:44 AM MDT 8:41 PM MDT
Nautical Twilight 4:02 AM MDT 9:24 PM MDT
Astronomical Twilight 3:12 AM MDT 10:14 PM MDT
Moon 2:57 AM MDT (5/16) 4:18 PM MDT (5/16)
Length of Visible Light 15h 56m
Length of Day
14h 49m
Waning Crescent, 15% of the Moon is Illuminated
May 16
Waning Crescent
May 20
New
May 28
First Quarter
Jun 4
Full
Jun 11
Last Quarter

Hourly Weather History & Observations

Time (MDT) Temp. Windchill Dew Point Humidity Pressure Visibility Wind Dir Wind Speed Gust Speed Precip Events Conditions
12:55 AM 53.1 °F - 36.0 °F 52% 30.07 in 10.0 mi SE 4.6 mph - N/A   Clear
1:55 AM 53.1 °F - 36.0 °F 52% 30.05 in 10.0 mi SE 4.6 mph - N/A   Clear
2:55 AM 53.1 °F - 36.0 °F 52% 30.04 in 10.0 mi ESE 6.9 mph - N/A   Clear
3:55 AM 46.0 °F - 36.0 °F 68% 30.05 in 10.0 mi Calm Calm - N/A   Clear
4:55 AM 44.1 °F 40.1 °F 36.0 °F 73% 30.04 in 10.0 mi East 6.9 mph - N/A   Clear
5:55 AM 44.1 °F 39.5 °F 37.0 °F 76% 30.02 in 10.0 mi East 8.1 mph - N/A   Clear
6:55 AM 52.0 °F - 39.0 °F 61% 30.02 in 10.0 mi SE 5.8 mph - N/A   Clear
7:55 AM 61.0 °F - 39.9 °F 46% 30.00 in 10.0 mi South 13.8 mph 23.0 mph N/A   Clear
8:55 AM 66.0 °F - 37.9 °F 36% 29.98 in 10.0 mi South 20.7 mph 28.8 mph N/A   Clear
9:55 AM 72.0 °F - 35.1 °F 26% 29.94 in 10.0 mi SSE 21.9 mph 31.1 mph N/A   Clear
10:55 AM 75.0 °F - 37.0 °F 25% 29.91 in 10.0 mi South 24.2 mph 32.2 mph N/A   Clear
11:55 AM 79.0 °F - 39.9 °F 25% 29.86 in 10.0 mi South 21.9 mph 29.9 mph N/A   Clear
12:55 PM 82.9 °F - 39.0 °F 21% 29.81 in 10.0 mi South 24.2 mph 34.5 mph N/A   Clear
1:55 PM 87.1 °F - 39.9 °F 19% 29.75 in 10.0 mi South 24.2 mph 32.2 mph N/A   Clear
2:55 PM 88.0 °F - 39.9 °F 18% 29.71 in 10.0 mi SSE 25.3 mph 32.2 mph N/A   Clear
3:55 PM 90.0 °F - 39.9 °F 17% 29.68 in 10.0 mi SSE 25.3 mph 32.2 mph N/A   Clear
4:55 PM 93.0 °F - 37.9 °F 15% 29.64 in 10.0 mi South 25.3 mph 33.4 mph N/A   Clear
5:50 PM 89.6 °F - 39.2 °F 17% 29.67 in 10.0 mi South 18.4 mph 28.8 mph N/A   Partly Cloudy
5:55 PM 89.1 °F - 39.9 °F 18% 29.62 in 10.0 mi South 20.7 mph 27.6 mph N/A   Partly Cloudy
6:55 PM 84.9 °F - 42.1 °F 22% 29.60 in 10.0 mi South 18.4 mph 25.3 mph N/A   Clear
7:55 PM 82.0 °F - 42.1 °F 24% 29.59 in 10.0 mi South 13.8 mph - N/A   Clear
8:55 PM 82.0 °F - 35.1 °F 18% 29.59 in 10.0 mi SW 10.4 mph - N/A   Clear
9:55 PM 80.1 °F - 35.1 °F 20% 29.62 in 10.0 mi NNW 8.1 mph - N/A   Clear
10:55 PM 80.1 °F - 37.9 °F 22% 29.62 in 10.0 mi North 6.9 mph - 0.00 in Rain Light Rain
11:55 PM 78.1 °F - 37.9 °F 24% 29.57 in 10.0 mi ESE 11.5 mph 23.0 mph 0.00 in   Clear